Location: Kalisz
(51.7636°N, 18.0893°E)
Time: 16:36:28
(UTC+01:00)

ISS - Pass Details

Date: 01 February 2019
Orbit: 403 x 411 km, 51.6° (Epoch: 19 February)

Event Time Altitude Azimuth Distance (km) Brightness Sun altitude
Rises 18:56:15 0° 279° (W) 2,339 1.5 -21.8°
Reaches altitude 10° 18:58:20 10° 277° (W) 1,478 0.1 -22.1°
Enters shadow 19:00:59 52° 261° (W) 517 -3.0 -22.5°
